Location: Clanezzo
(45.7500°N, 9.6000°E)
Time: 04:23:49
(UTC+00:00)

Resurs 1-3 - Pass Details

Date: 12 May 2021
Orbit: 630 x 631 km, 97.9° (Epoch: 18 June)

Event Time Altitude Azimuth Distance (km) Brightness Sun altitude
Exits shadow 19:36:52 - 170° (S) 2,585 6.3 -8.7°
Reaches altitude 10° 19:38:16 10° 171° (S) 2,008 5.7 -8.9°
Maximum altitude 19:42:38 77° 258° (WSW) 655 3.8 -9.5°
Drops below altitude 10° 19:47:03 10° 344° (NNW) 2,024 7.1 -10.1°
Sets 19:49:16 0° 346° (NNW) 2,936 8.0 -10.4°
